[[{"header":{"parameterUnit":"m.s-1","parameterCategory":1,"la1":30.2991,"la2":30.254,"lo1":-89.0895,"lo2":-89.0444,"dy":0.0017,"dx":0.0017,"nx":28,"ny":28,"refTime":"2023-03-21T21:00:00:Z","depth":0,"parameterNumber":2,"parameterNumberName":"U-component_of_WINDS"},"data":[0,0,0,0,0,0,0,0,0,0,0,0,0,0,0,0,0,0,0,0,0,0,0,0,0,0,0,0,0,0,0,0,0,0,0,0,0,0,0,0,0,0,0,0,0,0,0,0,0,0,0,0,0,0,0,0,0,0,-2.082,-2.082,0,-2.0836,-2.0836,-2.0836,-2.081,-2.0809,-2.0808,-2.0807,-2.0824,-2.0826,-2.0827,0,0,0,0,0,0,0,0,0,0,0,0,0,-2.0766,-2.0767,-2.082,-2.082,-2.082,-2.0836,-2.0836,-2.0836,-2.081,-2.0809,-2.0808,-2.0807,-2.0824,-2.0825,-2.0827,0,0,0,0,0,0,0,0,0,0,0,0,0,-2.0787,-2.0768,-2.082,-2.0809,-2.0808,-2.0836,-2.0836,-2.0836,-2.081,-2.0809,-2.0808,-2.0806,-2.0823,-2.0825,-2.0827,-2.0867,0,0,-2.0833,-2.0834,0,0,0,0,0,0,0,0,-2.0786,-2.0789,-2.081,-2.081,-2.0809,-2.0819,-2.0824,-2.0847,-2.0811,-2.0809,-2.0807,-2.0806,-2.0824,-2.0826,-2.0832,-2.0867,-2.0868,-2.0833,-2.0835,-2.0835,-2.0836,0,0,0,0,0,0,0,-2.0784,-2.0788,-2.0826,-2.081,-2.081,-2.0803,-2.0805,-2.0828,-2.0824,-2.0809,-2.0808,-2.081,-2.0823,-2.083,-2.0832,-2.0868,-2.0833,-2.0835,-2.0836,-2.0837,-2.0938,-2.0939,0,0,0,0,0,0,-2.0784,-2.0787,-2.0826,-2.0827,-2.0793,-2.0805,-2.0807,-2.0817,-2.0824,-2.0823,-2.0811,-2.0808,-2.0827,-2.083,-2.0832,-2.0879,-2.0835,-2.0837,-2.0838,-2.0936,-2.0938,-2.0939,0,0,0,0,0,0,-2.0783,-2.0788,-2.0825,-2.0806,-2.081,-2.0808,-2.082,-2.0818,-2.0825,-2.0825,-2.0824,-2.0818,-2.0826,-2.083,-2.0858,-2.0879,-2.0838,-2.084,-2.0934,-2.0937,-2.0939,-2.0973,0,0,0,0,0,0,-2.0781,-2.0787,-2.0802,-2.0807,-2.0812,-2.085,-2.0821,-2.082,-2.0829,-2.0825,-2.0832,-2.0832,-2.0825,-2.0856,-2.086,-2.0881,-2.0841,-2.0932,-2.0935,-2.0938,-2.097,-2.0976,-2.0981,0,0,0,0,0,-2.078,-2.0811,-2.0803,-2.0808,-2.083,-2.0852,-2.0854,-2.0847,-2.083,-2.0845,-2.0845,-2.0831,-2.0876,-2.0859,-2.0864,-2.0886,-2.0931,-2.0934,-2.0938,-2.0967,-2.0975,-2.0981,0,0,0,0,0,0,-2.0809,-2.0812,-2.0803,-2.0836,-2.0844,-2.0847,-2.0866,-2.0855,-2.0867,-2.0864,-2.0854,-2.0856,-2.0887,-2.0889,-2.0869,-2.0924,-2.0901,-2.0906,-2.0922,-2.0929,-2.0934,-2.0933,-2.0843,0,0,0,0,0,-2.082,-2.0837,-2.0838,-2.0868,-2.0872,-2.0868,-2.0878,-2.0871,-2.0879,-2.0882,-2.0884,-2.0892,-2.0908,-2.0918,-2.0933,-2.097,-2.0971,-2.0988,-2.0993,-2.0998,-2.1002,-2.1022,-2.1029,-2.0951,-2.095,-2.095,0,0,-2.0842,-2.0845,-2.0857,-2.0874,-2.0879,-2.0898,-2.0871,-2.0892,-2.0905,-2.0885,-2.0912,-2.0914,-2.0922,-2.0955,-2.097,-2.0958,-2.1024,-2.1002,-2.1006,-2.1007,-2.1026,-2.1034,-2.104,-2.0953,-2.0952,-2.0952,0,0,-2.0891,-2.0895,-2.092,-2.0926,-2.0934,-2.0931,-2.0938,-2.0942,-2.0943,-2.097,-2.0955,-2.0971,-2.0999,-2.1005,-2.1012,-2.1064,-2.1052,-2.1069,-2.1099,-2.1119,-2.1125,-2.113,-2.1149,-2.1156,-2.1073,-2.1073,-2.1073,0,-2.0917,-2.0944,-2.0935,-2.0957,-2.0965,-2.0947,-2.0973,-2.0979,-2.0991,-2.0997,-2.0984,-2.1018,-2.1023,-2.1057,-2.107,-2.1076,-2.1083,-2.1068,-2.1125,-2.113,-2.1135,-2.1153,-2.116,-2.1075,-2.1075,-2.1075,-2.1075,0,-2.0976,-2.0995,-2.1014,-2.1027,-2.1037,-2.1061,-2.1055,-2.1067,-2.106,-2.1059,-2.1086,-2.1091,-2.1106,-2.1114,-2.1107,-2.1148,-2.114,-2.1126,-2.1102,-2.1145,-2.1161,-2.1168,-2.1078,-2.1078,-2.1077,-2.1076,0,0,-2.1044,-2.1051,-2.1059,-2.1064,-2.1072,-2.1086,-2.1109,-2.1124,-2.1134,-2.1144,-2.1163,-2.1187,-2.1173,-2.1181,-2.1175,-2.1192,-2.1233,-2.1176,-2.1176,-2.1186,-2.1279,-2.1289,-2.1297,-2.1225,-2.1227,-2.1228,-2.1278,0,-2.1093,-2.1133,-2.1125,-2.1163,-2.1181,-2.1164,-2.1184,-2.1191,-2.1191,-2.1206,-2.1205,-2.1222,-2.1204,-2.1208,-2.1225,-2.1225,-2.1252,-2.1221,-2.1243,-2.1244,-2.1241,-2.1306,-2.1317,-2.1364,-2.1284,-2.1285,-2.1286,0,-2.1156,-2.1167,-2.1207,-2.1212,-2.1219,-2.1237,-2.125,-2.1265,-2.1272,-2.1271,-2.128,-2.127,-2.1293,-2.127,-2.1301,-2.1281,-2.1289,-2.1291,-2.1293,-2.1294,-2.1268,-2.1309,-2.1379,-2.1386,-2.1296,-2.1295,-2.1295,0,-2.1202,-2.1227,-2.1255,-2.126,-2.1266,-2.1279,-2.1282,-2.1289,-2.1298,-2.131,-2.1316,-2.133,-2.1338,-2.1349,-2.1344,-2.1327,-2.1377,-2.1352,-2.1376,-2.1376,-2.1387,-2.1387,-2.146,-2.1393,-2.1393,-2.1393,-2.1393,0,-2.1258,-2.1283,-2.1275,-2.1292,-2.132,-2.1311,-2.1339,-2.134,-2.1346,-2.1363,-2.135,-2.1366,-2.1358,-2.1374,-2.137,-2.1397,-2.14,-2.14,-2.1399,-2.1401,-2.1401,-2.1407,-2.1403,-2.1395,-2.1394,-2.1394,-2.1394,0,-2.1314,-2.131,-2.1339,-2.1342,-2.1343,-2.1364,-2.1367,-2.1383,-2.1381,-2.1403,-2.1407,-2.1405,-2.1423,-2.1419,-2.1438,-2.1436,-2.147,-2.1464,-2.1467,-2.1466,-2.149,-2.1488,-2.1569,-2.1579,-2.1506,-2.1507,-2.1507,0,-2.135,-2.1369,-2.1374,-2.1384,-2.1389,-2.1405,-2.1415,-2.1407,-2.1417,-2.1428,-2.1442,-2.1459,-2.1472,-2.1501,-2.1501,-2.1516,-2.1511,-2.1539,-2.1513,-2.1516,-2.1512,-2.1511,-2.1513,-2.1544,-2.1545,-2.1545,-2.1546,0,-2.1414,-2.1411,-2.1425,-2.1439,-2.145,-2.146,-2.1469,-2.1479,-2.1471,-2.1484,-2.1502,-2.1512,-2.1532,-2.1548,-2.1562,-2.1566,-2.1555,-2.1554,-2.156,-2.1563,-2.1564,-2.1564,-2.1481,-2.1552,-2.1551,-2.1551,-2.155,-2.155,-2.1462,-2.1478,-2.1484,-2.15,-2.1506,-2.1514,-2.1529,-2.1529,-2.1544,-2.1559,-2.1554,-2.1575,-2.1582,-2.1599,-2.1605,-2.1621,-2.161,-2.162,-2.1622,-2.1624,-2.1627,-2.1561,-2.1623,-2.1623,-2.1623,-2.1623,-2.1623,0,-2.1525,-2.1528,-2.1543,-2.1556,-2.1569,-2.1557,-2.1566,-2.1577,-2.1595,-2.1603,-2.1616,-2.1636,-2.1653,-2.1654,-2.1669,-2.1682,-2.1678,-2.1686,-2.1685,-2.1687,-2.1636,-2.1629,-2.169,-2.169,-2.169,-2.169,-2.169,-2.169,-2.156,-2.1586,-2.1584,-2.1613,-2.1616,-2.1636,-2.1642,-2.165,-2.1656,-2.168,-2.1693,-2.1694,-2.1699,-2.1714,-2.1729,-2.1729,-2.1735,-2.1746,-2.1744,-2.1697,-2.169,-2.1684,-2.1677,-2.1748,-2.1748,-2.1794,-2.1794,-2.1795]},{"header":{"parameterUnit":"m.s-1","parameterCategory":1,"la1":30.2991,"la2":30.254,"lo1":-89.0895,"lo2":-89.0444,"dy":0.0017,"dx":0.0017,"nx":28,"ny":28,"refTime":"2023-03-21T21:00:00:Z","depth":0,"parameterNumber":3,"parameterNumberName":"V-component_of_WINDS"},"data":[0,0,0,0,0,0,0,0,0,0,0,0,0,0,0,0,0,0,0,0,0,0,0,0,0,0,0,0,0,0,0,0,0,0,0,0,0,0,0,0,0,0,0,0,0,0,0,0,0,0,0,0,0,0,0,0,0,0,3.5026,3.5026,0,3.5065,3.5066,3.5066,3.5033,3.5032,3.503,3.5029,3.5066,3.5069,3.5071,0,0,0,0,0,0,0,0,0,0,0,0,0,3.4919,3.4921,3.5026,3.5026,3.5027,3.5065,3.5066,3.5066,3.5033,3.5032,3.503,3.5028,3.5066,3.5068,3.5071,0,0,0,0,0,0,0,0,0,0,0,0,0,3.4962,3.4922,3.5026,3.5015,3.5015,3.5065,3.5066,3.5067,3.5034,3.5032,3.503,3.5028,3.5065,3.5068,3.5071,3.5134,0,0,3.5082,3.5083,0,0,0,0,0,0,0,0,3.496,3.4966,3.5016,3.5016,3.5015,3.5042,3.5042,3.5089,3.5034,3.5026,3.5029,3.5027,3.506,3.5063,3.5075,3.5135,3.5137,3.5082,3.5084,3.5086,3.5087,0,0,0,0,0,0,0,3.4957,3.4964,3.5041,3.5017,3.5016,3.5007,3.5011,3.5051,3.5054,3.5027,3.5025,3.503,3.5059,3.5072,3.5076,3.5138,3.5082,3.5085,3.5087,3.5088,3.5251,3.5253,0,0,0,0,0,0,3.4955,3.4962,3.504,3.5043,3.4982,3.5011,3.5015,3.5036,3.5054,3.5054,3.5032,3.5028,3.5067,3.5072,3.5077,3.5152,3.5086,3.5089,3.5091,3.5249,3.5252,3.5254,0,0,0,0,0,0,3.4953,3.4963,3.5038,3.5002,3.5011,3.5015,3.5038,3.5038,3.5051,3.5057,3.5057,3.5044,3.5066,3.5072,3.512,3.5153,3.509,3.5093,3.5246,3.525,3.5253,3.5302,0,0,0,0,0,0,3.495,3.4962,3.4987,3.5003,3.5013,3.5082,3.504,3.504,3.5057,3.5053,3.5069,3.507,3.5065,3.5115,3.5124,3.5156,3.5096,3.5243,3.5248,3.5252,3.5297,3.5306,3.5314,0,0,0,0,0,3.4947,3.4998,3.4988,3.4998,3.5044,3.5084,3.509,3.5084,3.506,3.5084,3.5088,3.5069,3.5148,3.5121,3.513,3.5164,3.5241,3.5247,3.5252,3.5293,3.5304,3.5314,0,0,0,0,0,0,3.4984,3.5,3.4989,3.5047,3.5065,3.5078,3.5109,3.5095,3.5119,3.5114,3.5105,3.5109,3.5159,3.5166,3.5136,3.5225,3.5191,3.5198,3.5219,3.523,3.5238,3.5236,3.5099,0,0,0,0,0,3.4999,3.5032,3.5043,3.5093,3.5103,3.5104,3.5122,3.5116,3.5133,3.514,3.5147,3.5164,3.5192,3.5211,3.5238,3.5298,3.5301,3.5326,3.5334,3.5341,3.5347,3.538,3.5391,3.5271,3.5271,3.5271,0,0,3.5031,3.5043,3.5064,3.5101,3.5114,3.5147,3.5111,3.5147,3.5171,3.5145,3.5191,3.5197,3.5215,3.527,3.5294,3.5277,3.5381,3.5347,3.5353,3.5356,3.5387,3.5398,3.5408,3.5275,3.5274,3.5273,0,0,3.5105,3.5118,3.5161,3.5175,3.5196,3.5197,3.5207,3.5223,3.5227,3.5273,3.5254,3.5282,3.5331,3.5345,3.5359,3.5439,3.5423,3.5447,3.5492,3.5524,3.5533,3.5542,3.5571,3.5582,3.5454,3.5454,3.5454,0,3.5141,3.5192,3.5185,3.5224,3.524,3.5219,3.5263,3.5276,3.5304,3.5315,3.5296,3.5358,3.5368,3.5426,3.5446,3.5457,3.5468,3.5446,3.5533,3.5541,3.5549,3.5576,3.5587,3.5457,3.5456,3.5456,3.5456,0,3.5235,3.527,3.5303,3.5332,3.5352,3.5393,3.5392,3.5413,3.5405,3.5408,3.5455,3.5467,3.5496,3.5509,3.5501,3.5566,3.5555,3.5534,3.5499,3.5563,3.5589,3.56,3.5461,3.546,3.5459,3.5458,0,0,3.5335,3.536,3.5372,3.5385,3.5406,3.5433,3.5472,3.5502,3.552,3.554,3.5573,3.5615,3.5596,3.5612,3.5605,3.5633,3.5697,3.5609,3.5609,3.5626,3.5769,3.5785,3.5798,3.5686,3.5688,3.569,3.5768,0,3.5411,3.5481,3.5477,3.5542,3.5575,3.5555,3.5589,3.5606,3.5609,3.5636,3.5639,3.567,3.5643,3.5652,3.5679,3.5683,3.5726,3.5678,3.5716,3.5718,3.5713,3.5811,3.5828,3.5902,3.5778,3.578,3.5781,0,3.5509,3.5534,3.5603,3.562,3.5633,3.5665,3.5692,3.5718,3.5736,3.5736,3.5754,3.5743,3.5782,3.5746,3.58,3.5767,3.5783,3.5787,3.579,3.5794,3.5754,3.5818,3.5925,3.5936,3.5797,3.5796,3.5794,0,3.5576,3.5626,3.5674,3.5686,3.5706,3.5729,3.5738,3.5754,3.5772,3.5795,3.5807,3.5834,3.5849,3.5869,3.5865,3.5839,3.5921,3.5884,3.5922,3.5922,3.594,3.5939,3.6052,3.5949,3.5949,3.5949,3.5949,0,3.5661,3.5705,3.5704,3.5734,3.5782,3.5776,3.5823,3.583,3.5844,3.5875,3.5858,3.5887,3.588,3.5908,3.5905,3.595,3.5957,3.5958,3.5957,3.596,3.596,3.597,3.5965,3.5952,3.5951,3.5951,3.595,0,3.5744,3.5746,3.5797,3.5813,3.5818,3.5852,3.5865,3.5893,3.5895,3.5934,3.5942,3.5946,3.5978,3.5976,3.6012,3.601,3.6066,3.6059,3.6061,3.606,3.6098,3.6095,3.6221,3.6238,3.6124,3.6125,3.6126,0,3.5799,3.5832,3.5852,3.5872,3.5883,3.5915,3.5934,3.5928,3.5948,3.5972,3.5997,3.6028,3.6052,3.6105,3.611,3.6137,3.613,3.6173,3.6134,3.6137,3.6132,3.613,3.6134,3.6181,3.6182,3.6183,3.6184,0,3.5897,3.5896,3.5925,3.5954,3.5977,3.5999,3.6019,3.6036,3.6033,3.6056,3.6089,3.6109,3.6146,3.6177,3.6203,3.6212,3.6198,3.6196,3.6206,3.621,3.621,3.6211,3.6082,3.6193,3.6192,3.6192,3.6191,3.6191,3.5968,3.5997,3.6016,3.6048,3.6063,3.6082,3.611,3.6116,3.6144,3.6175,3.6169,3.6207,3.6224,3.6258,3.6269,3.6298,3.6283,3.6298,3.6302,3.6305,3.631,3.6205,3.6303,3.6302,3.6302,3.6302,3.6302,0,3.6066,3.6077,3.6107,3.6136,3.6162,3.6147,3.6168,3.619,3.6224,3.6241,3.6266,3.6305,3.6335,3.6342,3.6371,3.6393,3.6387,3.64,3.6399,3.6401,3.6322,3.631,3.6405,3.6405,3.6405,3.6405,3.6405,3.6405,3.612,3.6169,3.617,3.6225,3.6236,3.6273,3.6287,3.6305,3.6319,3.6363,3.6388,3.6393,3.6407,3.6436,3.6463,3.6465,3.6476,3.6493,3.6492,3.6417,3.6407,3.6397,3.6386,3.6495,3.6495,3.6569,3.6569,3.657]}]]